Ypsilanti, MI

10:08 AM EST on December 16, 2017 (GMT -0500)
Willow Run

Weather History for KYIP - February, 2014

Change the Weather History Date:

Thursday, February 20, 2014

  Actual Average Record
Temperature  
Mean Temperature 37 °F -  
Max Temperature 45 °F 38 °F 66 °F (2016)
Min Temperature 30 °F 23 °F -17 °F (2015)
Degree Days  
Heating Degree Days 28    
Moisture  
Dew Point 31 °F    
Average Humidity 83    
Maximum Humidity 93    
Minimum Humidity 72    
Precipitation  
Precipitation 0.88 in - - ()
Sea Level Pressure  
Sea Level Pressure 29.78 in    
Wind  
Wind Speed 7 mph (East)    
Max Wind Speed 17 mph    
Max Gust Speed 24 mph    
Visibility 2 miles    
Events Fog , Rain , Snow    
Averages and records for this station are not official NWS values.
T = Trace of Precipitation, MM = Missing Value Source: NWS Daily Summary

Daily Weather History Graph

Daily Weather History Graph

Search for Another Location

Airport or City:

Trip Planner

Search our weather history database for the weather conditions in past years. The results will help you decide how hot, cold, wet, or windy it might be!

Date:

Astronomy

Feb. 20, 2014 Rise Set
Actual Time 7:23 AM EST 6:13 PM EST
Civil Twilight 6:54 AM EST 6:41 PM EST
Nautical Twilight 6:22 AM EST 7:14 PM EST
Astronomical Twilight 5:49 AM EST 7:46 PM EST
Moon No Moon Rise 9:58 AM EST (2/20)
Length of Visible Light 11h 46m
Length of Day
10h 49m
Waning Gibbous, 71% of the Moon is Illuminated
Feb 20
Waning Gibbous
Feb 22
Last Quarter
Mar 1
New
Mar 8
First Quarter
Mar 16
Full

Hourly Weather History & Observations

Time (EST) Temp. Windchill Dew Point Humidity Pressure Visibility Wind Dir Wind Speed Gust Speed Precip Events Conditions
12:13 AM 30.9 °F 26.2 °F 27.0 °F 85% 30.04 in 3.0 mi SW 4.6 mph - N/A   Clear
12:53 AM 32.0 °F 26.4 °F 27.0 °F 82% 30.07 in 4.0 mi SW 5.8 mph - N/A   Haze
1:53 AM 32.0 °F 24.2 °F 27.0 °F 82% 30.08 in 3.0 mi SSW 9.2 mph - N/A   Haze
2:42 AM 30.9 °F 25.2 °F 27.0 °F 85% 30.06 in 2.5 mi South 5.8 mph - N/A   Clear
2:53 AM 30.9 °F 27.5 °F 26.1 °F 82% 30.07 in 2.5 mi South 3.5 mph - N/A   Haze
3:53 AM 30.9 °F - 27.0 °F 85% 30.04 in 2.0 mi Calm Calm - N/A   Scattered Clouds
4:53 AM 30.0 °F 24.1 °F 25.0 °F 82% 30.01 in 2.0 mi ENE 5.8 mph - N/A   Haze
5:23 AM 30.0 °F 26.5 °F 26.1 °F 85% 30.00 in 1.8 mi ENE 3.5 mph - N/A   Clear
5:30 AM 30.9 °F 27.5 °F 26.1 °F 82% 29.99 in 2.0 mi ENE 3.5 mph - N/A   Haze
5:42 AM 30.0 °F 26.5 °F 26.1 °F 85% 29.98 in 1.8 mi East 3.5 mph - N/A   Clear
5:53 AM 32.0 °F 26.4 °F 27.0 °F 82% 29.99 in 1.8 mi ESE 5.8 mph - N/A   Haze
6:15 AM 32.0 °F 26.4 °F 27.0 °F 82% 29.97 in 2.0 mi East 5.8 mph - N/A   Haze
6:53 AM 32.0 °F 27.5 °F 27.0 °F 82% 29.97 in 2.0 mi ESE 4.6 mph - N/A   Haze
7:35 AM 30.9 °F 22.8 °F 26.1 °F 82% 29.95 in 1.5 mi ESE 9.2 mph - N/A   Haze
7:53 AM 32.0 °F 24.8 °F 27.0 °F 82% 29.96 in 1.8 mi East 8.1 mph - N/A   Haze
8:00 AM 33.1 °F 26.1 °F 27.0 °F 78% 29.94 in 2.5 mi East 8.1 mph - N/A   Haze
8:11 AM 33.1 °F 27.7 °F 27.0 °F 78% 29.95 in 3.0 mi East 5.8 mph - N/A   Haze
8:53 AM 34.0 °F 26.6 °F 27.0 °F 75% 29.93 in 4.0 mi East 9.2 mph - N/A   Haze
9:53 AM 35.1 °F 27.9 °F 27.0 °F 72% 29.91 in 4.0 mi NE 9.2 mph - N/A   Haze
10:14 AM 36.0 °F 30.3 °F 28.0 °F 73% 29.91 in 4.0 mi East 6.9 mph - N/A   Haze
10:19 AM 36.0 °F 30.3 °F 28.0 °F 73% 29.91 in 4.0 mi ENE 6.9 mph - N/A   Haze
10:32 AM 36.0 °F 31.1 °F 28.0 °F 73% 29.91 in 2.5 mi ENE 5.8 mph - 0.00 in Snow Light Snow
10:38 AM 36.0 °F 31.1 °F 28.0 °F 73% 29.91 in 1.8 mi East 5.8 mph - 0.00 in Snow Light Snow
10:47 AM 35.6 °F 31.7 °F 28.4 °F 75% 29.91 in 0.2 mi East 4.6 mph - 0.00 in Snow Heavy Snow
10:48 AM 36.0 °F 32.1 °F 28.9 °F 76% 29.93 in 0.2 mi East 4.6 mph - 0.00 in Snow Heavy Snow
10:58 AM 35.1 °F 29.3 °F 30.0 °F 82% 29.91 in 0.2 mi East 6.9 mph - 0.00 in Snow Heavy Snow
11:06 AM 35.1 °F 29.3 °F 30.9 °F 85% 29.90 in 0.2 mi East 6.9 mph - 0.00 in Fog , Snow Heavy Snow
11:26 AM 35.1 °F 25.9 °F 30.9 °F 85% 29.87 in 0.2 mi NE 13.8 mph - 0.00 in Fog , Snow Snow
11:38 AM 36.0 °F 27.1 °F 30.9 °F 82% 29.84 in 0.8 mi ENE 13.8 mph - 0.00 in Snow Light Snow
11:53 AM 36.0 °F 27.1 °F 32.0 °F 86% 29.85 in 1.0 mi ENE 13.8 mph - 0.03 in Rain Rain
12:53 PM 37.0 °F 27.7 °F 32.0 °F 82% 29.79 in 2.0 mi East 16.1 mph - 0.27 in Rain Rain
1:53 PM 37.0 °F 27.7 °F 32.0 °F 82% 29.73 in 3.0 mi East 16.1 mph 24.2 mph 0.13 in Rain Light Rain
2:48 PM 37.4 °F 29.8 °F 32.0 °F 81% 29.71 in 2.0 mi East 11.5 mph - 0.05 in   Haze
2:53 PM 36.0 °F 28.0 °F 32.0 °F 86% 29.72 in 1.8 mi East 11.5 mph - 0.06 in   Overcast
3:02 PM 37.0 °F 28.5 °F 32.0 °F 82% 29.70 in 1.2 mi ESE 13.8 mph - N/A   Haze
3:53 PM 37.0 °F 28.9 °F 32.0 °F 82% 29.70 in 1.0 mi East 12.7 mph - 0.03 in Rain Light Rain
4:53 PM 37.0 °F 29.3 °F 33.1 °F 86% 29.67 in 1.8 mi East 11.5 mph - 0.04 in Rain Light Rain
5:17 PM 37.9 °F 30.9 °F 33.1 °F 83% 29.65 in 2.0 mi East 10.4 mph - 0.01 in Rain Light Rain
5:34 PM 37.9 °F 31.5 °F 34.0 °F 86% 29.63 in 1.5 mi East 9.2 mph - 0.04 in Rain Rain
5:53 PM 37.9 °F 30.5 °F 34.0 °F 86% 29.63 in 2.0 mi East 11.5 mph - 0.05 in Rain Light Rain
6:07 PM 37.9 °F 30.9 °F 34.0 °F 86% 29.61 in 1.8 mi East 10.4 mph - 0.03 in Rain Rain
6:29 PM 37.9 °F 30.9 °F 34.0 °F 86% 29.59 in 2.0 mi East 10.4 mph - 0.09 in Rain Rain
6:49 PM 37.4 °F 29.3 °F 33.8 °F 87% 29.57 in 3.0 mi East 12.7 mph - 0.10 in Rain Light Rain
6:53 PM 37.9 °F 30.9 °F 34.0 °F 86% 29.59 in 3.0 mi East 10.4 mph - 0.10 in Rain Light Rain
7:04 PM 37.9 °F 30.9 °F 34.0 °F 86% 29.58 in 2.0 mi East 10.4 mph - 0.00 in Rain Light Rain
7:53 PM 37.9 °F 32.7 °F 34.0 °F 86% 29.56 in 2.0 mi East 6.9 mph - 0.01 in Rain Light Rain
8:49 PM 37.4 °F 32.1 °F 35.6 °F 93% 29.51 in 1.8 mi East 6.9 mph - 0.00 in   Overcast
8:53 PM 37.9 °F 32.7 °F 35.1 °F 89% 29.52 in 1.8 mi East 6.9 mph - 0.00 in   Overcast
9:15 PM 37.9 °F 33.5 °F 35.1 °F 89% 29.49 in 2.0 mi ENE 5.8 mph - N/A   Overcast
9:22 PM 37.9 °F 32.1 °F 35.1 °F 89% 29.48 in 1.8 mi East 8.1 mph - N/A   Overcast
9:53 PM 39.0 °F 34.0 °F 35.1 °F 86% 29.48 in 1.8 mi ENE 6.9 mph - N/A   Overcast
10:07 PM 39.0 °F 34.8 °F 35.1 °F 86% 29.45 in 2.0 mi ENE 5.8 mph - N/A   Overcast
10:37 PM 37.9 °F - 35.1 °F 89% 29.46 in 1.5 mi Calm Calm - 0.03 in Rain Heavy Rain
10:53 PM 39.0 °F 33.4 °F 35.1 °F 86% 29.47 in 1.2 mi SE 8.1 mph - 0.09 in Rain Rain
11:09 PM 43.0 °F 36.0 °F 39.9 °F 89% 29.42 in 2.0 mi South 13.8 mph - 0.04 in Rain Light Rain
11:16 PM 44.1 °F 36.5 °F 39.9 °F 85% 29.41 in 5.0 mi SSE 17.3 mph - 0.05 in Rain Light Rain
11:53 PM 45.0 °F 38.5 °F 41.0 °F 86% 29.41 in 6.0 mi South 13.8 mph - 0.07 in   Scattered Clouds